Regional Weather Roundup
Issued by NWS Spokane, WA

Home | Current Version | Previous Version | Text Only | Print | Product List | Glossary On
Versions: 1 2 3 4 5 6 7 8 9 10 11 12 13 14 15 16 17 18 19 20 21 22 23 24 25 26 27 28 29 30 31 32 33 34 35 36 37 38 39 40 41 42 43 44 45 46 47 48 49 50
000
NZUS01 KOTX 190310
RWROTX
EASTERN WASHINGTON/NORTHERN IDAHO ROUNDUP
NATIONAL WEATHER SERVICE, SPOKANE WA
800 PM PDT SAT APR 18 2015

Note: "fair" indicated few or no clouds below 12,000 feet with no
significant weather and/or obstructions to visibility.

...NORTHEAST WASHINGTON AND NORTHERN IDAHO PANHANDLE...

CITY           SKY/WX    TMP DP  RH WIND       PRES   REMARKS
SPOKANE INTL   PTCLDY    59  20  22 N7        30.15S
SPOKANE DOWNTO CLEAR     55  26  32 NW3       30.15S
COEUR D ALENE  CLEAR     57  18  21 NW10      30.15S
DEER PARK      CLEAR     54  23  30 N7        30.15F
SANDPOINT      CLEAR     59  19  21 NW7       30.13S
BONNERS FERRY  FAIR      55  21  26 N12       30.13S

...SOUTHEAST WASHINGTON AND SOUTHERN IDAHO PANHANDLE...

CITY           SKY/WX    TMP DP  RH WIND       PRES   REMARKS
WALLA WALLA    CLEAR     64  32  30 S5        30.17F
PULLMAN/MOSCOW CLEAR     55  25  31 W8        30.18F
LEWISTON       CLEAR     63  21  20 W3        30.15S
LOWELL           N/A     51  41  68 CALM      30.17R

...COLUMBIA BASIN...

CITY           SKY/WX    TMP DP  RH WIND       PRES   REMARKS
EPHRATA        CLEAR     61  32  33 SW3       30.15S
MOSES LAKE     PTCLDY    66  25  21 SW5       30.16F
TRI CITIES     PTCLDY    66  26  22 SE6       30.15F
HERMISTON      CLEAR     58  32  37 E5        30.15F
PENDLETON      CLEAR     58  27  30 N7        30.16F

...EAST SLOPES CASCADES...

CITY           SKY/WX    TMP DP  RH WIND       PRES   REMARKS
THE DALLES     CLEAR     63  35  35 NE8       30.13F
YAKIMA         CLEAR     66  27  23 S5        30.15F
ELLENSBURG     CLEAR     59  35  40 N3        30.15F
WENATCHEE      CLEAR     62  33  33 E8        30.14S
OMAK           CLEAR     53  32  44 N8        30.17S

...SOUTHERN BRITISH COLUMBIA...

CITY           SKY/WX    TMP DP  RH WIND       PRES   REMARKS
PENTICTON      MOCLDY    59  25  27 NW6       30.20F
CASTLEGAR      PTCLDY    59  18  20 N7        30.17R
CRANBROOK      PTCLDY    52  16  24 N10G17    30.16R

...WESTERN MONTANA...

CITY           SKY/WX    TMP DP  RH WIND       PRES   REMARKS
MISSOULA       CLEAR     56  22  26 N8        30.11R

...NEIGHBORING CITIES...

CITY           SKY/WX    TMP DP  RH WIND       PRES   REMARKS
SEATTLE        MOCLDY    58  37  45 N5        30.24F
CALGARY        PTCLDY    39  16  38 NE7       30.26R



USA.gov is the U.S. government's official web portal to all federal, state and local government web resources and services.